This is the latest recevied weather packets stored in our database for station/object KC3UTO. If no packets are shown the sender has not sent any weather packets the latest 10 day(s).
| Time | Temp. | Humidity | Pressure | Rain* | Wind** | Luminosity | Snow |
|---|---|---|---|---|---|---|---|
| 1777867730 | 6.11° C | 67% | 1013.3 hPa | 0 mm | - | 0 W/m² | - |
| 1777867428 | 6.11° C | 67% | 1013.2 hPa | 0 mm | - | 0 W/m² | - |
| 1777867123 | 6.11° C | 66% | 1013 hPa | 0 mm | - | 0 W/m² | - |
| 1777866822 | 6.67° C | 66% | 1013 hPa | 0 mm | - | 0 W/m² | - |
| 1777866518 | 6.67° C | 65% | 1013 hPa | 0 mm | - | 0 W/m² | - |
| 1777866216 | 6.67° C | 64% | 1013.1 hPa | 0 mm | - | 0 W/m² | - |
| 1777865912 | 6.67° C | 63% | 1012.8 hPa | 0 mm | - | 0 W/m² | - |
| 1777865611 | 7.22° C | 62% | 1012.7 hPa | 0 mm | - | 0 W/m² | - |
| 1777865307 | 7.22° C | 61% | 1012.6 hPa | 0 mm | - | 0 W/m² | - |
| 1777865004 | 7.22° C | 60% | 1012.6 hPa | 0 mm | - | 0 W/m² | - |
| 1777864701 | 7.22° C | 59% | 1012.6 hPa | 0 mm | - | 0 W/m² | - |
| 1777864398 | 7.78° C | 59% | 1012.7 hPa | 0 mm | - | 0 W/m² | - |
| 1777864094 | 7.78° C | 55% | 1012.5 hPa | 0 mm | - | 0 W/m² | - |
| 1777863792 | 7.78° C | 52% | 1012.7 hPa | 0 mm | - | 0 W/m² | - |
| 1777863488 | 7.78° C | 53% | 1012.5 hPa | 0 mm | - | 0 W/m² | - |
| 1777863185 | 7.78° C | 53% | 1012.6 hPa | 0 mm | - | 0 W/m² | - |
| 1777862881 | 8.33° C | 53% | 1012.6 hPa | 0 mm | - | 0 W/m² | - |
| 1777862578 | 8.89° C | 50% | 1012.6 hPa | 0 mm | - | 0 W/m² | - |
| 1777862275 | 8.89° C | 50% | 1012.6 hPa | 0 mm | - | 0 W/m² | - |
| 1777861971 | 8.89° C | 50% | 1012.6 hPa | 0 mm | - | 0 W/m² | - |
| 1777861667 | 8.89° C | 50% | 1012.7 hPa | 0 mm | - | 0 W/m² | - |
| 1777861364 | 9.44° C | 48% | 1012.5 hPa | 0 mm | - | 0 W/m² | - |
| 1777861061 | 10° C | 48% | 1012.8 hPa | 0 mm | - | 0 W/m² | - |
| 1777860758 | 10.56° C | 48% | 1012.5 hPa | 0 mm | - | 0 W/m² | - |
| 1777860455 | 11.11° C | 45% | 1012.6 hPa | 0 mm | - | 0 W/m² | - |
* Rain latest hour (hover to see other rain measurements)
** Current wind speed in m/s (hover to see current wind gust speed)